Terug naar catalogus

OPS 4682 DEB

ActiefPO
NORAD 38433·DEBRIS·🇺🇸 United States

Gelanceerd Apr 3, 1965 vanaf Vandenberg Space Force Base

Loading…

Volgende Passages (komende 24 uur)

TLE

VersSource: Space-Track

Epoch: Sep 14, 2026, 07:15 UTC

1 38433U 65027EN  26257.30249937  .00000970  00000-0  26733-2 0  9999
2 38433  90.2644  15.4530 0026008 287.5902  72.2386 13.12341346643532

Volg OPS 4682 DEB in realtime met AllMySat

Download on the App Store